EW5171 Weather Reports


time (UTC)temp
C
wind
direction
speed
KPH
gust
KPH
rain 1hr
cm
rain 24hr
cm
rain mn
cm
humidity
%
barometer
mb
20260505140540 12 202 3.2 9.7 0.00 0.00 0.00 59 1012.4
20260505125035 13 33 3.2 6.4 0.00 0.00 0.00 55 1012.2
20260505124539 13 86 1.6 6.4 0.00 0.00 0.00 57 1012.2
20260505124034 13 32 1.6 9.7 0.00 0.00 0.00 58 1012.2
20260505123535 13 74 3.2 8.0 0.00 0.00 0.00 56 1012.2
20260505123038 13 60 1.6 9.7 0.00 0.00 0.00 58 1012.3
20260505122532 13 69 3.2 9.7 0.00 0.00 0.00 56 1012.3
20260505122031 12 44 3.2 9.7 0.00 0.00 0.00 58 1012.3
20260505121532 12 50 4.8 9.7 0.00 0.00 0.00 57 1012.4
20260505121031 13 63 4.8 11.3 0.00 0.00 0.00 56 1012.3
20260505120531 13 53 4.8 11.3 0.00 0.00 0.00 56 1012.3
20260505120030 13 16 1.6 6.4 0.00 0.00 0.00 58 1012.3
20260505115528 13 68 1.6 8.0 0.00 0.00 0.00 56 1012.3
20260505115028 13 5 3.2 9.7 0.00 0.00 0.00 56 1012.3
20260505114528 12 46 1.6 9.7 0.00 0.00 0.00 58 1012.3
20260505114027 13 31 3.2 8.0 0.00 0.00 0.00 57 1012.3
20260505113527 12 28 3.2 6.4 0.00 0.00 0.00 58 1012.3
20260505113026 12 113 1.6 9.7 0.00 0.00 0.00 58 1012.4
20260505112525 12 34 3.2 8.0 0.00 0.00 0.00 56 1012.4
20260505112024 13 58 3.2 9.7 0.00 0.00 0.00 57 1012.4
20260505111533 13 98 1.6 6.4 0.00 0.00 0.00 58 1012.4
20260505111024 12 105 3.2 8.0 0.00 0.00 0.00 60 1012.4
20260505110522 12 53 3.2 8.0 0.00 0.00 0.00 58 1012.5
20260505102017 12 21 4.8 16.1 0.00 0.00 0.00 56 1012.6
20260505101517 12 65 6.4 16.1 0.00 0.00 0.00 55 1012.6
20260505101016 13 13 3.2 9.7 0.00 0.00 0.00 56 1012.6
20260505100517 13 35 1.6 11.3 0.00 0.00 0.00 61 1012.6
20260505100018 13 45 3.2 12.9 0.00 0.00 0.00 59 1012.6
20260505095514 13 109 3.2 9.7 0.00 0.00 0.00 59 1012.6
20260505095013 13 82 3.2 9.7 0.00 0.00 0.00 59 1012.6
20260505094515 13 42 1.6 9.7 0.00 0.00 0.00 60 1012.6
20260505094011 12 64 3.2 16.1 0.00 0.00 0.00 62 1012.5
20260505093511 12 13 3.2 16.1 0.00 0.00 0.00 61 1012.5
20260505093010 12 61 4.8 9.7 0.00 0.00 0.00 60 1012.4
20260505092509 13 70 3.2 8.0 0.00 0.00 0.00 61 1012.3
20260505092007 13 327 3.2 8.0 0.00 0.00 0.00 61 1012.3
20260505091505 12 40 3.2 6.4 0.00 0.00 0.00 63 1012.3
20260505091004 12 33 1.6 12.9 0.00 0.00 0.00 65 1012.2
20260505090508 12 51 4.8 12.9 0.00 0.00 0.00 64 1012.3
20260505090004 12 59 3.2 8.0 0.00 0.00 0.00 64 1012.4
20260505085503 12 38 3.2 8.0 0.00 0.00 0.00 64 1012.4
20260505085002 12 19 3.2 8.0 0.00 0.00 0.00 64 1012.4
20260505084601 12 31 1.6 8.0 0.00 0.00 0.00 64 1012.4
20260505084059 11 74 3.2 8.0 0.00 0.00 0.00 63 1012.3
20260505083557 11 50 4.8 11.3 0.00 0.00 0.00 65 1012.2
20260505083058 11 59 4.8 11.3 0.00 0.00 0.00 65 1012.2
20260505082556 11 268 3.2 9.7 0.00 0.00 0.00 64 1012.2
20260505082053 11 319 0.0 8.0 0.00 0.00 0.00 66 1012.2
20260505081603 11 160 1.6 8.0 0.00 0.00 0.00 66 1012.2
20260505081051 11 57 1.6 8.0 0.00 0.00 0.00 68 1012.2
20260505080551 11 70 1.6 11.3 0.00 0.00 0.00 69 1012.1
20260505080050 11 86 4.8 11.3 0.00 0.00 0.00 67 1012.1
20260505075552 11 259 3.2 11.3 0.00 0.00 0.00 68 1012.1
20260505075048 11 84 1.6 14.5 0.00 0.00 0.00 70 1012.2
20260505074546 11 138 3.2 14.5 0.00 0.00 0.00 69 1012.1
20260505074046 10 316 1.6 9.7 0.00 0.00 0.00 72 1012.1
20260505073544 10 63 3.2 9.7 0.00 0.00 0.00 72 1012.0
20260505073048 10 304 3.2 9.7 0.00 0.00 0.00 72 1012.0
20260505072542 10 58 4.8 9.7 0.00 0.00 0.00 73 1012.0
20260505072041 10 266 3.2 12.9 0.00 0.00 0.00 75 1011.9
20260505071550 10 200 3.2 12.9 0.00 0.00 0.00 74 1011.9
20260505071038 9 315 3.2 12.9 0.00 0.00 0.00 75 1011.9
20260505070540 9 298 1.6 12.9 0.00 0.00 0.00 77 1012.0
20260505070035 9 16 3.2 12.9 0.00 0.00 0.00 78 1012.0
20260505065534 8 355 3.2 12.9 0.00 0.03 0.00 79 1011.9
20260505065032 8 123 1.6 12.9 0.00 0.03 0.00 81 1011.9
20260505064531 8 313 3.2 11.3 0.00 0.03 0.00 83 1011.9
20260505064029 8 56 1.6 11.3 0.00 0.03 0.00 85 1011.9
20260505063529 8 213 3.2 11.3 0.00 0.03 0.00 86 1011.8
20260505063027 7 79 3.2 14.5 0.00 0.03 0.00 86 1011.9
20260505062525 7 106 3.2 14.5 0.00 0.03 0.00 90 1011.9
20260505062024 7 285 1.6 9.7 0.00 0.03 0.00 92 1011.9
20260505061525 7 85 1.6 12.9 0.00 0.03 0.00 92 1011.8
20260505061022 7 336 3.2 16.1 0.00 0.03 0.00 94 1011.8
20260505060524 7 311 4.8 16.1 0.00 0.03 0.00 95 1011.9
20260505060023 7 50 4.8 12.9 0.00 0.03 0.00 95 1011.9
20260505055519 6 311 3.2 8.0 0.00 0.03 0.00 96 1011.8
20260505055018 6 238 1.6 8.0 0.00 0.03 0.00 96 1011.8
20260505054517 6 298 1.6 12.9 0.00 0.03 0.00 96 1011.9
20260505054016 6 234 3.2 12.9 0.00 0.03 0.00 96 1011.9
20260505053515 6 360 1.6 11.3 0.00 0.03 0.00 96 1011.9
20260505053021 5 293 0.0 11.3 0.00 0.03 0.00 96 1011.8
20260505052515 5 269 1.6 11.3 0.00 0.03 0.00 96 1011.9
20260505052010 5 294 3.2 8.0 0.00 0.03 0.00 96 1011.8
20260505051512 5 275 1.6 9.7 0.00 0.03 0.00 96 1011.8
20260505051011 5 277 3.2 9.7 0.00 0.03 0.00 96 1011.7
20260505050511 5 231 1.6 9.7 0.00 0.03 0.00 96 1011.7
20260505041504 3 304 1.6 11.3 0.00 0.03 0.00 95 1011.5
20260505041003 3 214 3.2 11.3 0.00 0.03 0.00 95 1011.5
20260505040503 3 248 1.6 9.7 0.00 0.03 0.00 95 1011.5
20260505040006 3 288 1.6 6.4 0.00 0.03 0.00 95 1011.5
20260505035502 3 254 1.6 6.4 0.00 0.05 0.00 95 1011.4
20260505035000 3 236 1.6 6.4 0.00 0.05 0.00 95 1011.5
20260505034501 3 204 0.0 4.8 0.00 0.05 0.00 95 1011.5
20260505034100 3 204 0.0 4.8 0.00 0.05 0.00 95 1011.5
20260505033600 3 260 0.0 4.8 0.00 0.05 0.00 95 1011.6
20260505033101 3 242 0.0 3.2 0.00 0.05 0.00 95 1011.5
20260505032559 3 285 0.0 4.8 0.00 0.05 0.00 95 1011.5
20260505032057 3 254 0.0 4.8 0.00 0.05 0.00 95 1011.6
20260505031559 3 229 0.0 6.4 0.00 0.05 0.00 95 1011.6
20260505031057 3 229 1.6 6.4 0.00 0.05 0.00 95 1011.6
20260505030557 3 246 1.6 8.0 0.00 0.05 0.00 95 1011.6
20260505030103 3 247 1.6 8.0 0.00 0.05 0.00 95 1011.6
20260505025556 3 296 1.6 6.4 0.00 0.08 0.00 95 1011.6
20260505025055 3 246 1.6 3.2 0.00 0.08 0.00 94 1011.7
20260505024555 3 325 0.0 3.2 0.00 0.08 0.00 94 1011.7
20260505024053 3 321 0.0 3.2 0.00 0.08 0.00 94 1011.7
20260505023553 3 216 0.0 8.0 0.00 0.08 0.00 94 1011.7
20260505023057 3 272 1.6 8.0 0.00 0.08 0.00 94 1011.8
20260505022553 3 212 0.0 3.2 0.00 0.08 0.00 94 1011.8
20260505022050 3 213 0.0 3.2 0.00 0.08 0.00 94 1011.8
20260505021552 3 246 0.0 4.8 0.00 0.08 0.00 94 1011.8
20260505021049 3 259 0.0 4.8 0.00 0.08 0.00 94 1011.8
20260505020549 3 261 0.0 3.2 0.00 0.08 0.00 94 1011.8
20260505020052 3 261 0.0 3.2 0.00 0.08 0.00 94 1011.8
20260505015548 3 275 0.0 3.2 0.00 0.25 0.00 94 1011.9
20260505015047 3 236 0.0 4.8 0.00 0.25 0.00 94 1011.8
20260505014547 3 292 0.0 3.2 0.00 0.25 0.00 93 1011.9
20260505014048 3 287 0.0 3.2 0.00 0.25 0.00 93 1011.8
20260505013545 3 290 0.0 3.2 0.00 0.25 0.00 93 1011.9
20260505013044 3 290 0.0 3.2 0.00 0.25 0.00 93 1011.9
20260505012544 3 242 0.0 3.2 0.00 0.25 0.00 93 1011.9
20260505012046 4 242 0.0 3.2 0.00 0.25 0.00 93 1012.0
20260505011550 4 240 0.0 6.4 0.00 0.25 0.00 93 1012.1
20260505011046 4 238 0.0 6.4 0.00 0.25 0.00 93 1012.1
20260505010540 4 271 0.0 3.2 0.00 0.25 0.00 93 1012.1
20260505010040 4 238 0.0 4.8 0.00 0.25 0.00 93 1012.2
20260505005539 4 226 0.0 9.7 0.00 0.28 0.00 93 1012.2
20260505005039 4 300 1.6 9.7 0.00 0.28 0.00 93 1012.2
20260505004540 5 228 0.0 8.0 0.00 0.28 0.00 93 1012.3
20260505004037 4 259 3.2 9.7 0.00 0.28 0.00 93 1012.2
20260505003540 4 263 0.0 8.0 0.00 0.28 0.00 93 1012.3
20260505003036 4 269 0.0 6.4 0.00 0.28 0.00 93 1012.4
20260505002536 4 209 0.0 1.6 0.00 0.28 0.00 92 1012.3
20260505002035 4 234 0.0 1.6 0.00 0.28 0.00 92 1012.4
20260505001535 4 234 0.0 4.8 0.00 0.28 0.00 92 1012.3
20260505001034 4 227 1.6 4.8 0.00 0.28 0.00 92 1012.3
20260505000538 4 308 1.6 4.8 0.00 0.28 0.00 92 1012.2
20260505000034 4 292 0.0 4.8 0.00 0.28 0.00 92 1012.3
20260504235533 4 281 0.0 3.2 0.00 0.33 0.00 92 1012.3
20260504235033 4 289 0.0 4.8 0.00 0.33 0.00 92 1012.3
20260504234532 4 289 0.0 4.8 0.00 0.33 0.00 92 1012.2
20260504234032 4 227 1.6 4.8 0.00 0.33 0.00 92 1012.3
20260504233535 4 240 0.0 3.2 0.00 0.33 0.00 91 1012.2
20260504233031 4 240 0.0 3.2 0.00 0.33 0.00 91 1012.3
20260504232530 4 240 0.0 3.2 0.00 0.33 0.00 91 1012.3
20260504232029 5 286 0.0 1.6 0.00 0.33 0.00 91 1012.3
20260504231528 5 286 0.0 4.8 0.00 0.33 0.00 91 1012.3
20260504231031 5 286 0.0 4.8 0.00 0.33 0.00 90 1012.3
20260504230528 5 243 0.0 3.2 0.00 0.33 0.00 90 1012.3
20260504230029 5 231 0.0 4.8 0.00 0.33 0.00 90 1012.3
20260504225527 5 286 0.0 4.8 0.00 0.38 0.00 90 1012.3
20260504225026 5 294 0.0 4.8 0.00 0.38 0.00 90 1012.3
20260504224527 5 207 0.0 3.2 0.00 0.38 0.00 89 1012.3
20260504224025 5 280 0.0 1.6 0.00 0.38 0.00 89 1012.3
20260504223524 5 280 0.0 1.6 0.00 0.38 0.00 89 1012.2
20260504223024 5 280 0.0 1.6 0.00 0.38 0.00 89 1012.2
20260504222524 5 280 0.0 4.8 0.00 0.38 0.00 89 1012.2
20260504222023 5 280 0.0 4.8 0.00 0.38 0.00 89 1012.2
20260504221524 5 246 0.0 4.8 0.00 0.38 0.00 89 1012.2
20260504221021 5 246 1.6 4.8 0.00 0.38 0.00 88 1012.3
20260504220520 5 274 0.0 6.4 0.00 0.38 0.00 88 1012.3
20260504220023 5 274 0.0 6.4 0.00 0.38 0.00 88 1012.4
20260504215519 6 297 0.0 4.8 0.00 0.53 0.38 88 1012.4
20260504215019 6 282 0.0 4.8 0.00 0.53 0.38 88 1012.4
20260504214518 6 267 0.0 4.8 0.00 0.53 0.38 88 1012.5
20260504214019 6 277 0.0 4.8 0.00 0.53 0.38 88 1012.4
20260504213517 6 278 0.0 4.8 0.00 0.53 0.38 88 1012.4
20260504213017 6 280 1.6 6.4 0.00 0.53 0.38 88 1012.4
20260504212617 6 275 1.6 6.4 0.00 0.53 0.38 88 1012.4
20260504212015 6 252 0.0 4.8 0.00 0.53 0.38 87 1012.3
20260504211516 6 300 0.0 4.8 0.00 0.53 0.38 87 1012.4
20260504211014 6 253 0.0 3.2 0.00 0.53 0.38 87 1012.3
20260504210513 6 253 0.0 4.8 0.00 0.53 0.38 86 1012.2
20260504210013 6 253 0.0 4.8 0.00 0.53 0.38 86 1012.4
20260504205514 6 284 0.0 1.6 0.00 0.64 0.38 86 1012.4
20260504205011 6 284 0.0 3.2 0.00 0.64 0.38 85 1012.4
20260504204511 6 284 0.0 3.2 0.00 0.64 0.38 85 1012.4
20260504204010 6 284 0.0 3.2 0.00 0.64 0.38 85 1012.4
20260504203510 7 284 0.0 9.7 0.00 0.64 0.38 84 1012.3
20260504203012 7 290 0.0 3.2 0.00 0.64 0.38 84 1012.3
20260504202508 7 290 0.0 0.0 0.00 0.64 0.38 83 1012.3
20260504202006 7 290 0.0 0.0 0.00 0.64 0.38 82 1012.4
20260504201506 7 290 0.0 0.0 0.00 0.64 0.38 82 1012.3
20260504201005 7 241 0.0 0.0 0.00 0.64 0.38 81 1012.3
20260504200505 7 241 0.0 0.0 0.00 0.64 0.38 81 1012.3
20260504200004 7 241 0.0 0.0 0.00 0.64 0.38 81 1012.3
20260504195504 8 232 0.0 1.6 0.00 0.66 0.38 80 1012.3
20260504195003 8 221 0.0 1.6 0.00 0.66 0.38 80 1012.2
20260504194503 8 221 0.0 3.2 0.00 0.66 0.38 79 1012.3
20260504194009 8 219 0.0 3.2 0.00 0.66 0.38 79 1012.3
20260504193504 8 257 0.0 4.8 0.00 0.66 0.38 78 1012.2
20260504193004 8 225 0.0 4.8 0.00 0.66 0.38 78 1012.3
20260504192502 8 248 0.0 3.2 0.00 0.66 0.38 78 1012.3
20260504192003 8 297 0.0 4.8 0.00 0.66 0.38 78 1012.3
20260504191506 9 297 0.0 4.8 0.00 0.66 0.38 77 1012.2
20260504191001 9 256 1.6 6.4 0.00 0.66 0.38 77 1012.2
20260504190501 9 284 1.6 12.9 0.00 0.66 0.38 76 1012.1
20260504190111 9 267 0.0 12.9 0.00 0.66 0.38 76 1012.1
20260504185602 9 292 0.0 11.3 0.00 0.66 0.38 76 1012.1
20260504185100 10 262 4.8 14.5 0.00 0.66 0.38 76 1012.0
20260504184615 10 289 3.2 12.9 0.00 0.66 0.38 75 1011.9
20260504184059 10 264 4.8 14.5 0.00 0.66 0.38 74 1011.9
20260504183558 10 184 4.8 14.5 0.00 0.66 0.38 74 1011.8
20260504183104 10 314 4.8 11.3 0.00 0.66 0.38 73 1011.8
20260504182557 10 253 1.6 6.4 0.00 0.66 0.38 72 1011.8
20260504182056 11 287 1.6 16.1 0.00 0.66 0.38 72 1011.8
20260504181557 11 255 8.0 16.1 0.00 0.66 0.38 71 1011.8
20260504181057 11 325 3.2 14.5 0.00 0.66 0.38 71 1011.7
20260504180556 11 302 4.8 16.1 0.00 0.66 0.38 71 1011.6
20260504180056 11 273 4.8 20.9 0.00 0.66 0.38 70 1011.7
20260504175556 11 245 1.6 12.9 0.00 0.66 0.38 70 1011.6
20260504175056 11 275 1.6 12.9 0.00 0.66 0.38 69 1011.5
20260504174559 11 203 0.0 19.3 0.00 0.66 0.38 68 1011.5
20260504174054 12 198 3.2 17.7 0.00 0.66 0.38 68 1011.5
20260504173553 12 350 6.4 17.7 0.00 0.66 0.38 67 1011.5
20260504173057 12 297 3.2 17.7 0.00 0.66 0.38 66 1011.4
20260504172552 13 292 4.8 17.7 0.00 0.66 0.38 65 1011.3
20260504172051 13 302 1.6 14.5 0.00 0.66 0.38 64 1011.3
20260504171550 13 296 4.8 14.5 0.00 0.66 0.38 63 1011.2
20260504171050 14 219 3.2 12.9 0.00 0.66 0.38 62 1011.2
20260504170550 14 310 1.6 17.7 0.00 0.66 0.38 62 1011.2
20260504151045 15 258 6.4 25.7 0.00 0.66 0.38 55 1011.0
20260504150543 16 309 3.2 19.3 0.00 0.66 0.38 53 1010.9